Location: Dannhausen
(51.8650°N, 10.1026°E)
Time: 05:32:37
(UTC+00:00)

Cosmos 1607 - Pass Details

Date: 09 April 2020
Orbit: 917 x 986 km, 65.0° (Epoch: 02 June)

Event Time Altitude Azimuth Distance (km) Brightness Sun altitude
Exits shadow 23:12:02 46° 274° (W) 1,243 4.5 -30.1°
Maximum altitude 23:13:29 57° 321° (NW) 1,101 4.4 -30.1°
Drops below altitude 10° 23:19:40 10° 40° (NE) 2,689 6.9 -30.1°
Sets 23:22:19 0° 44° (NE) 3,648 7.6 -30.1°
